TimeAKDT,TemperatureF,Dew PointF,Humidity,Sea Level PressureIn,VisibilityMPH,Wind Direction,Wind SpeedMPH,Gust SpeedMPH,PrecipitationIn,Events,Conditions,WindDirDegrees,DateUTC
12:53 AM,32.0,28.0,85,30.40,10.0,SSW,20.7,-,N/A,,Overcast,210,2012-10-23 08:53:00
1:02 AM,30.2,28.4,93,30.40,10.0,SSW,17.3,-,N/A,,Overcast,200,2012-10-23 09:02:00
1:25 AM,32.0,28.4,87,30.41,10.0,SSW,18.4,24.2,N/A,,Overcast,210,2012-10-23 09:25:00
1:53 AM,32.0,28.0,85,30.42,10.0,SSW,17.3,-,N/A,,Overcast,210,2012-10-23 09:53:00
2:01 AM,32.0,28.4,87,30.42,10.0,SSW,19.6,-,N/A,,Overcast,210,2012-10-23 10:01:00
2:30 AM,32.0,28.4,87,30.43,10.0,SSW,20.7,27.6,0.00,,Overcast,210,2012-10-23 10:30:00
2:46 AM,32.0,28.4,87,30.43,10.0,SW,17.3,-,0.00,,Overcast,220,2012-10-23 10:46:00
2:53 AM,32.0,28.9,88,30.44,10.0,SSW,17.3,-,0.00,,Overcast,210,2012-10-23 10:53:00
3:13 AM,32.0,28.4,87,30.44,10.0,SSW,16.1,-,N/A,,Overcast,210,2012-10-23 11:13:00
3:34 AM,32.0,28.4,87,30.44,10.0,SSW,16.1,-,0.00,,Overcast,210,2012-10-23 11:34:00
4:18 AM,32.0,28.4,87,30.46,10.0,SW,11.5,-,N/A,,Overcast,230,2012-10-23 12:18:00
4:53 AM,33.1,28.9,85,30.46,10.0,SW,15.0,-,N/A,,Overcast,220,2012-10-23 12:53:00
5:53 AM,34.0,25.0,70,30.48,10.0,WSW,15.0,-,N/A,,Overcast,250,2012-10-23 13:53:00
6:53 AM,34.0,24.1,67,30.49,10.0,WSW,13.8,-,N/A,,Overcast,250,2012-10-23 14:53:00
7:53 AM,33.1,25.0,72,30.51,10.0,WSW,15.0,-,N/A,,Overcast,240,2012-10-23 15:53:00
8:53 AM,33.1,25.0,72,30.53,10.0,WSW,13.8,-,N/A,,Overcast,250,2012-10-23 16:53:00
9:53 AM,33.1,26.1,75,30.55,10.0,SSW,10.4,-,N/A,,Overcast,210,2012-10-23 17:53:00
10:53 AM,33.1,25.0,72,30.56,10.0,WSW,10.4,-,N/A,,Overcast,250,2012-10-23 18:53:00
11:30 AM,30.2,28.4,93,30.56,6.0,SSW,9.2,-,N/A,,Overcast,210,2012-10-23 19:30:00
11:53 AM,33.1,26.1,75,30.56,10.0,SW,9.2,-,N/A,,Overcast,230,2012-10-23 19:53:00
12:37 PM,30.2,28.4,93,30.58,6.0,SSW,11.5,-,N/A,,Overcast,200,2012-10-23 20:37:00
12:46 PM,30.2,28.4,93,30.58,8.0,SSW,11.5,-,N/A,,Overcast,210,2012-10-23 20:46:00
12:53 PM,30.9,28.9,92,30.59,7.0,SSW,9.2,-,N/A,,Overcast,210,2012-10-23 20:53:00
1:27 PM,30.2,28.4,93,30.58,3.0,SSW,12.7,-,0.00,Snow,Light Snow,200,2012-10-23 21:27:00
1:53 PM,30.9,28.9,92,30.59,2.5,SSW,9.2,-,0.00,Snow,Light Snow,200,2012-10-23 21:53:00
2:02 PM,32.0,28.4,87,30.59,4.0,SSW,10.4,-,0.00,,Overcast,200,2012-10-23 22:02:00
2:25 PM,30.2,28.4,93,30.59,5.0,SSW,10.4,-,0.00,,Overcast,210,2012-10-23 22:25:00
2:50 PM,32.0,28.4,87,30.60,4.0,SW,6.9,-,0.00,,Overcast,220,2012-10-23 22:50:00
2:53 PM,32.0,30.0,92,30.60,5.0,SSW,9.2,-,0.00,,Overcast,210,2012-10-23 22:53:00
3:15 PM,32.0,30.2,93,30.60,1.8,SSW,5.8,-,0.00,Snow,Light Snow,210,2012-10-23 23:15:00
3:35 PM,32.0,30.2,93,30.61,5.0,SW,5.8,-,0.00,,Overcast,230,2012-10-23 23:35:00
3:46 PM,33.8,30.2,87,30.61,9.0,West,6.9,-,0.00,,Overcast,260,2012-10-23 23:46:00
3:53 PM,33.1,30.0,89,30.61,10.0,West,5.8,-,0.00,,Overcast,260,2012-10-23 23:53:00
4:53 PM,34.0,28.9,82,30.62,10.0,NW,4.6,-,N/A,,Overcast,310,2012-10-24 00:53:00
5:53 PM,33.1,30.0,89,30.64,10.0,NW,3.5,-,N/A,,Overcast,320,2012-10-24 01:53:00
6:35 PM,33.8,28.4,81,30.65,6.0,NNW,5.8,-,N/A,,Overcast,330,2012-10-24 02:35:00
6:53 PM,33.1,28.9,85,30.65,7.0,NNW,6.9,-,N/A,,Overcast,340,2012-10-24 02:53:00
7:53 PM,32.0,28.9,88,30.67,9.0,North,3.5,-,N/A,,Overcast,10,2012-10-24 03:53:00
8:00 PM,32.0,28.4,87,30.66,9.0,North,3.5,-,N/A,,Overcast,360,2012-10-24 04:00:00
8:53 PM,32.0,28.0,85,30.68,4.0,NNE,3.5,-,0.00,Snow,Light Snow,30,2012-10-24 04:53:00
9:30 PM,30.2,28.4,93,30.68,5.0,East,3.5,-,0.00,,Overcast,100,2012-10-24 05:30:00
9:53 PM,30.9,28.0,89,30.69,8.0,ESE,3.5,-,0.00,,Overcast,110,2012-10-24 05:53:00
10:53 PM,30.9,28.0,89,30.69,9.0,ESE,4.6,-,N/A,,Overcast,110,2012-10-24 06:53:00
11:06 PM,30.2,28.4,93,30.70,9.0,East,4.6,-,N/A,,Overcast,100,2012-10-24 07:06:00
11:18 PM,30.2,28.4,93,30.70,10.0,ESE,4.6,-,N/A,,Overcast,110,2012-10-24 07:18:00
11:53 PM,30.0,28.0,92,30.71,10.0,East,3.5,-,N/A,,Overcast,100,2012-10-24 07:53:00